Regional Weather Roundup
Issued by NWS

Home | Current Version | Previous Version | Text Only | Print | Product List | Glossary On
Versions: 1 2 3 4 5 6 7 8 9 10 11 12 13 14 15 16 17 18 19 20 21 22 23 24 25 26 27 28 29 30 31 32 33 34 35 36 37 38 39 40 41 42 43 44 45 46 47 48 49 50
000
ASHW40 PHFO 250012
RWRHI

WEATHER ROUNDUP FOR HAWAII
NATIONAL WEATHER SERVICE HONOLULU HI
200 PM HST TUE JAN 24 2017

THIS IS AN AUTOMATED REPORT THAT HAS NOT BEEN QUALITY CONTROLLED.

NOTE..."FAIR" INDICATES FEW OR NO CLOUDS BELOW 12,000 FEET WITH NO
SIGNIFICANT WEATHER AND/OR OBSTRUCTIONS TO VISIBILITY.

* - THESE SITES REPORT LIMITED FIELDS

HIZ001>004-250100-
KAUAI-NIIHAU-

CITY           SKY/WX    TMP DP  RH WIND       PRES   REMARKS
LIHUE APT      PTSUNNY   76  69  79 NE23      30.11F
PORT ALLEN*      N/A     73 N/A N/A NE14G20     N/A
POIPU*           N/A     79 N/A N/A NE9G18      N/A
PRINCEVILLE*     N/A     72 N/A N/A NE12G22     N/A
KOKOLE POINT*  NOT AVBL
MOLOAA DAIRY*    N/A    N/A N/A N/A E7G16       N/A
WAIMEA HTS*    NOT AVBL
PUU OPAE*      NOT AVBL
PUU LUA*       NOT AVBL
MAKAHA RIDGE*  NOT AVBL
$$

HIZ005>011-250100-
OAHU-

CITY           SKY/WX    TMP DP  RH WIND       PRES   REMARKS
HONOLULU       PTSUNNY   78  69  73 NE15G22   30.08F
KALAELOA       LGT RAIN  75  70  84 NE7       30.09F
KANEOHE MCB    NOT AVBL
WHEELER FIELD  PTSUNNY   72  68  88 NE8       30.08F
BELLOWS*       NOT AVBL
KAHUKU*        NOT AVBL
WHEELER*       NOT AVBL
WAIANAE HARBOR NOT AVBL
DILLINGHAM*      N/A     73  68  83 MISG        N/A
KAHUKU TRN*      N/A     66  59  77 W13G22      N/A
KAWAILOA*        N/A     72  66  83 NE14G22     N/A
KII*             N/A     79  68  69 E17         N/A
MAKUA RANGE*     N/A     79  75  89 NW5G12      N/A
OAHU FOREST NW NOT AVBL
SCHOFIELD BRK*   N/A     73  70  88 MISG        N/A
SCHOFIELD S*   NOT AVBL
WAIANAE VLY*   NOT AVBL
KUAOKALA*      NOT AVBL
HONOULIUULI*   NOT AVBL
MOKUOLOE IS*   NOT AVBL
PALEHUA*       NOT AVBL
WAIAWA PHB*    NOT AVBL
$$

HIZ012>013-250100-
MOLOKAI-

CITY           SKY/WX    TMP DP  RH WIND       PRES   REMARKS
MOLOKAI AIRPT  CLOUDY    73  66  78 NE16G26   30.09F
KALAUPAPA      NOT AVBL
MAKAPULAPAI*   NOT AVBL
MOLOKAI 1*     NOT AVBL
PUU ALII*      NOT AVBL
$$

HIZ016-250100-
KAHOOLAWE-

CITY           SKY/WX    TMP DP  RH WIND       PRES   REMARKS
KAHOOLAWE*     NOT AVBL
HAKIOAWA*      NOT AVBL
HONOKANAIA*      N/A     78  66  66 NE15G26   30.02F
KANELOA*         N/A     72  66  83 E15G28    30.15F
KEALIALALO*    NOT AVBL
LUA MAKIKA*    NOT AVBL
$$

HIZ014>015-250100-
LANAI-

CITY           SKY/WX    TMP DP  RH WIND       PRES   REMARKS
LANAI CITY     NOT AVBL
LANAI 1*       NOT AVBL
$$

HIZ017>028-250100-
MAUI-

CITY           SKY/WX    TMP DP  RH WIND       PRES   REMARKS
KAHULUI        LGT RAIN  78  66  66 NE18G26   30.07F
KAPALUA-W MAUI LGT RAIN  75  64  69 NE17      30.08F
HANA AIRPORT   CLOUDY    73  68  83 NE7       30.11F
HANA*            N/A     73 N/A N/A E3G10       N/A
HALEAKALA SUMM   N/A     46  39  76 N9          N/A
MAALAEA BAY*   NOT AVBL
HALEAKALA*     NOT AVBL
KAUPO GAP*     NOT AVBL
KULA 1*          N/A     57  52  83 NW6G12      N/A
$$

HIZ023>026-250100-
BIG ISLAND OF HAWAII COAST AND LOWER SLOPES-

CITY           SKY/WX    TMP DP  RH WIND       PRES   REMARKS
KAILUA KONA    MOSUNNY   80  68  66 SW12      30.02F
HILO           LGT RAIN  71  69  93 CALM      30.06F FOG
HONOKAA*         N/A     70 N/A N/A VRB1        N/A
KAWAIHAE MWT*  NOT AVBL
KAWAIHAE*        N/A     75 N/A N/A W7        30.04F
SOUTH POINT*     N/A     72 N/A N/A N17G24      N/A
UPOLU AIRPORT* NOT AVBL
KAMUELA*       PTCLDY    73  63  68 NE14      30.14F
HAKALAU*         N/A     58  53  85 E6          N/A
KALOKO-HONOKO* NOT AVBL
PALI 2*          N/A     66  64  94 W9G17       N/A
KEALAKOMO*       N/A     72  68  88 NE13G22     N/A
KAUPULEHU*     NOT AVBL
KAPAPALA*      NOT AVBL
LOWER KAHUKU*  NOT AVBL
PUHE CS*       NOT AVBL
PUHO CS*       NOT AVBL
PTA KEAMUKU*     N/A     70  59  68 CALM        N/A
WAIKOLOA*      NOT AVBL
$$

HIZ027>028-250100-
BIG ISLAND OF HAWAII INTERIOR AND SUMMMITS-

CITY           SKY/WX    TMP DP  RH WIND       PRES   REMARKS
BRADSHAW FIELD MOSUNNY   65  52  63 W10G20    30.33F
MK VISITOR CEN   N/A     45  43  93 S6          N/A
MAUNA KEA*       N/A     30  23  74 SW23        N/A  WCI  17
MAUNA LOA*     NOT AVBL
MAUNA LOA 1*   NOT AVBL
PTA KIPUKA*      N/A     70  54  56 NW7G18      N/A
PTA RANGE 17*    N/A     63  52  67 W10G17      N/A
PTA WEST*        N/A    N/A N/A N/A NW9G17      N/A
NENE CABIN*    NOT AVBL
AHUMOA*        NOT AVBL
PTA PORTABLE*  NOT AVBL
PUU MALI*        N/A     55 N/A N/A NE15G24     N/A
$$

HIC003-250100-
NORTHWEST ISLANDS-

CITY           SKY/WX    TMP DP  RH WIND       PRES   REMARKS
MIDWAY ISLAND  MOSUNNY   75  70  83 SW14      30.12F
MIDWAY NOS*    NOT AVBL
FRENCH FRIGATE NOT AVBL
$$

PHZ110>124-180-250100-
BUOY REPORTS

STATION/POSITION TIME  TEMP    WIND        PRES    WAVE   SWELL
                       AIR SEA DIR/SP/G            HT/PER HT/DIR
                 (UTC) (F)     (DEG/KT/KT) (MB)    (FT/S) (FT/D)
BUOY 51001       2350   73 75   70/ 16/ 19 1020.6F  10/17   8/340
BUOY 51101       2350   73 75   70/ 16/ 19 1021.0F  10/16   8/310
BUOY 51100       NOT AVBL
BUOY 51002       2350   75 77   50/ 16/ 19 1016.0F  10/ 9   8/ 70
BUOY 51003       2350   76 78   40/ 10/ 12 1017.7F   7/10   7/ 80
BUOY 51004       2250      77   70/ 17/ 23 1016.5   11/10   8/ 80
BARBERS PT BUOY  NOT AVBL
WAIMEA BAY BUOY  2302      74                N/A     5/12   3
KAILUA BAY BUOY  2334      76                N/A     8/10   3/ 40
LANAI BUOY       2345      79                N/A     2/14   2/220
BARBERS PT 2     2339      77                N/A     4/ 9   2/170
PAUWELA MAUI     2339      75                N/A     8/10   3/ 30
HILO             2342      75                N/A    10/10   5/ 80
KANEOHE BAY BUOY 2306      75                N/A     7/11   3/ 30
HANALEI KAUAI    2322      77                N/A     8/10   3/ 60
KAHULUI HARBOR   2342   74 74   50/ 15/ 21 1018.3F
HONOLULU HARBOR  2348   74 76   40/  4/  8 1019.3F
KILO NALU        NOT AVBL
HILO HARBOR      2348   71 74  220/  2/  4 1017.7F
MOKUOLOE         2336   72 73   80/  8/ 10 1019.2
NAWILIWILI       2348   74      30/ 17/ 24 1019.1F
WHOTS BUOY       NOT AVBL
BUOY 51028       NOT AVBL
$$

......................KEY........................................
  SKY/WX - SKY CONDITIONS/PRESENT WEATHER
  TMP    - TEMPERATURE IN FAHRENHEIT
  DWPT   - DEWPOINT IN FAHRENHEIT
  RH     - RELATIVE HUMIDITY IN PERCENT
  WIND   - DIRECTION AND SPEED /MPH FOR ISLANDS...KTS FOR BUOYS/
  PRES   - MEAN SEA LEVEL PRESSURE IN INCHES OF HG
  VSB    - VISIBILITY IN MILES
  HX     - HEAT INDEX
  WCI    - WIND CHILL INDEX
  VRB    - VARIABLE WIND DIRECTION
  N/A    - NOT AVAILABLE




USA.gov is the U.S. government's official web portal to all federal, state and local government web resources and services.